,,,PA_Meas_PMT16A,,PR_Meas_QMR101_102,,RH_Meas_QMH101,,SR_Meas_QMS101,,TA_Meas_QMH101,,GenWind,,GenWind,
date,time,status,PA,status,PR,status,RH,status,SR,status,TA,status,DirAvg,status,SpdAvg,
2012-06-16, 00:00:04,VALID,1005.76,VALID,0,VALID,90.2954,VALID,0.0815089,VALID,23.3497,VALID,11,VALID,0,
2012-06-16, 00:01:04,VALID,1005.75,VALID,0,VALID,90.3107,VALID,0,VALID,23.3514,VALID,11,VALID,0,
2012-06-16, 00:02:04,VALID,1005.77,VALID,0,VALID,90.2954,VALID,0.0815089,VALID,23.2913,VALID,11,VALID,0,
2012-06-16, 00:03:04,VALID,1005.75,VALID,0,VALID,90.2344,VALID,0.0815089,VALID,23.2524,VALID,11,VALID,0,
2012-06-16, 00:04:04,VALID,1005.72,VALID,0,VALID,90.4327,VALID,0,VALID,23.2134,VALID,11,VALID,0.492969,
2012-06-16, 00:05:04,VALID,1005.74,VALID,0,VALID,90.5624,VALID,0.0815089,VALID,23.194,VALID,11,VALID,0.527344,
2012-06-16, 00:06:04,VALID,1005.72,VALID,0,VALID,90.86,VALID,0.0815089,VALID,23.1745,VALID,11,VALID,0.445703,
2012-06-16, 00:07:04,VALID,1005.7,VALID,0,VALID,90.7455,VALID,0.0815089,VALID,23.1745,VALID,11,VALID,0.423438,
2012-06-16, 00:08:04,VALID,1005.69,VALID,0,VALID,90.5243,VALID,0.0815089,VALID,23.1356,VALID,11,VALID,0.3125,
2012-06-16, 00:09:04,VALID,1005.66,VALID,0,VALID,90.4327,VALID,0,VALID,23.079,VALID,11,VALID,0,
2012-06-16, 00:10:04,VALID,1005.64,VALID,0,VALID,90.6387,VALID,0,VALID,23.0595,VALID,11,VALID,0,
2012-06-16, 00:11:04,VALID,1005.6,VALID,0,VALID,90.6845,VALID,0,VALID,23.0383,VALID,11,VALID,0,
2012-06-16, 00:12:04,VALID,1005.59,VALID,0,VALID,90.7913,VALID,0,VALID,23.0613,VALID,11,VALID,0,
2012-06-16, 00:13:04,VALID,1005.58,VALID,0,VALID,90.8676,VALID,0,VALID,23.0206,VALID,11,VALID,0,
2012-06-16, 00:14:04,VALID,1005.55,VALID,0,VALID,90.7074,VALID,0,VALID,23.0012,VALID,11,VALID,0,
2012-06-16, 00:15:04,VALID,1005.53,VALID,0,VALID,90.3107,VALID,0,VALID,22.9622,VALID,11,VALID,0,
2012-06-16, 00:16:04,VALID,1005.53,VALID,0,VALID,89.975,VALID,0,VALID,22.9445,VALID,11,VALID,0,
2012-06-16, 00:17:04,VALID,1005.48,VALID,0,VALID,90.1123,VALID,0,VALID,22.9233,VALID,11,VALID,0,
2012-06-16, 00:18:04,VALID,1005.45,VALID,0,VALID,90.1581,VALID,0,VALID,22.9233,VALID,11,VALID,0,
2012-06-16, 00:19:04,VALID,1005.45,VALID,0,VALID,90.2878,VALID,0.0815089,VALID,22.941,VALID,11,VALID,0,
2012-06-16, 00:20:04,VALID,1005.46,VALID,0,VALID,90.0513,VALID,0.0815089,VALID,22.9428,VALID,11,VALID,0,
2012-06-16, 00:21:04,VALID,1005.46,VALID,0,VALID,90.2344,VALID,0.0815089,VALID,22.9216,VALID,11,VALID,0,
2012-06-16, 00:22:04,VALID,1005.42,VALID,0,VALID,90.1581,VALID,0.0815089,VALID,22.9233,VALID,11,VALID,0,
2012-06-16, 00:23:04,VALID,1005.42,VALID,0,VALID,90.0971,VALID,0.0815089,VALID,22.8827,VALID,11,VALID,0,
2012-06-16, 00:24:04,VALID,1005.41,VALID,0,VALID,90.0132,VALID,0,VALID,22.8438,VALID,11,VALID,0,
2012-06-16, 00:25:04,VALID,1005.38,VALID,0,VALID,90.2497,VALID,0,VALID,22.8649,VALID,11,VALID,0,
2012-06-16, 00:26:04,VALID,1005.39,VALID,0,VALID,90.2039,VALID,0,VALID,22.8649,VALID,11,VALID,0,
2012-06-16, 00:27:04,VALID,1005.37,VALID,0,VALID,90.3488,VALID,0,VALID,22.8455,VALID,11,VALID,0,
2012-06-16, 00:28:04,VALID,1005.38,VALID,0,VALID,90.2649,VALID,0,VALID,22.8455,VALID,11,VALID,0,
2012-06-16, 00:29:04,VALID,1005.37,VALID,0,VALID,90.3793,VALID,0.0815089,VALID,22.8048,VALID,11,VALID,0,
2012-06-16, 00:30:04,VALID,1005.33,VALID,0,VALID,90.4175,VALID,0,VALID,22.826,VALID,11,VALID,0,
2012-06-16, 00:31:04,VALID,1005.34,VALID,0,VALID,90.4327,VALID,0,VALID,22.826,VALID,11,VALID,0,
2012-06-16, 00:32:04,VALID,1005.35,VALID,0,VALID,90.3717,VALID,0,VALID,22.8066,VALID,11,VALID,0,
2012-06-16, 00:33:04,VALID,1005.33,VALID,0,VALID,90.3717,VALID,0,VALID,22.8066,VALID,11,VALID,0,
2012-06-16, 00:34:04,VALID,1005.3,VALID,0,VALID,90.5014,VALID,0,VALID,22.7871,VALID,11,VALID,0,
2012-06-16, 00:35:04,VALID,1005.31,VALID,0,VALID,90.387,VALID,0,VALID,22.7871,VALID,11,VALID,0,
2012-06-16, 00:36:04,VALID,1005.31,VALID,0,VALID,90.4022,VALID,0,VALID,22.7482,VALID,11,VALID,0,
2012-06-16, 00:37:04,VALID,1005.27,VALID,0,VALID,90.3183,VALID,0,VALID,22.7287,VALID,11,VALID,0,
2012-06-16, 00:38:04,VALID,1005.28,VALID,0,VALID,90.2268,VALID,0,VALID,22.7499,VALID,11,VALID,0,
2012-06-16, 00:39:04,VALID,1005.28,VALID,0,VALID,90.4175,VALID,0,VALID,22.7287,VALID,11,VALID,0,
2012-06-16, 00:40:04,VALID,1005.27,VALID,0,VALID,90.2039,VALID,0,VALID,22.7287,VALID,11,VALID,0,
2012-06-16, 00:41:04,VALID,1005.27,VALID,0,VALID,90.1886,VALID,0,VALID,22.7482,VALID,11,VALID,0,
2012-06-16, 00:42:04,VALID,1005.25,VALID,0,VALID,90.1429,VALID,0,VALID,22.7465,VALID,11,VALID,0,
2012-06-16, 00:43:04,VALID,1005.24,VALID,0,VALID,90.0589,VALID,0,VALID,22.7677,VALID,11,VALID,0,
2012-06-16, 00:44:04,VALID,1005.28,VALID,0,VALID,90.1429,VALID,0,VALID,22.7465,VALID,11,VALID,0,
2012-06-16, 00:45:04,VALID,1005.29,VALID,0,VALID,90.1886,VALID,0.0815089,VALID,22.7482,VALID,11,VALID,0,
2012-06-16, 00:46:04,VALID,1005.29,VALID,0,VALID,90.2268,VALID,0,VALID,22.7482,VALID,11,VALID,0,
2012-06-16, 00:47:04,VALID,1005.33,VALID,0,VALID,90.3488,VALID,0,VALID,22.7482,VALID,11,VALID,0,
2012-06-16, 00:48:04,VALID,1005.3,VALID,0,VALID,90.3565,VALID,0,VALID,22.7287,VALID,11,VALID,0,
2012-06-16, 00:49:04,VALID,1005.29,VALID,0,VALID,90.3717,VALID,0.0815089,VALID,22.7482,VALID,11,VALID,0,
2012-06-16, 00:50:04,VALID,1005.26,VALID,0,VALID,90.3946,VALID,0.0815089,VALID,22.7482,VALID,11,VALID,0,
2012-06-16, 00:51:04,VALID,1005.28,VALID,0,VALID,90.4633,VALID,0,VALID,22.7482,VALID,11,VALID,0,
2012-06-16, 00:52:04,VALID,1005.25,VALID,0,VALID,90.5548,VALID,0,VALID,22.7287,VALID,11,VALID,0,
2012-06-16, 00:53:04,VALID,1005.24,VALID,0,VALID,90.654,VALID,0,VALID,22.7093,VALID,11,VALID,0,
2012-06-16, 00:54:04,VALID,1005.25,VALID,0,VALID,90.715,VALID,0,VALID,22.6898,VALID,11,VALID,0,
2012-06-16, 00:55:04,VALID,1005.25,VALID,0,VALID,90.7989,VALID,0.0815089,VALID,22.6704,VALID,11,VALID,0,
2012-06-16, 00:56:04,VALID,1005.21,VALID,0,VALID,90.8905,VALID,0,VALID,22.6704,VALID,11,VALID,0,
2012-06-16, 00:57:04,VALID,1005.23,VALID,0,VALID,90.8829,VALID,0,VALID,22.6297,VALID,11,VALID,0,
2012-06-16, 00:58:04,VALID,1005.19,VALID,0,VALID,91.0583,VALID,0,VALID,22.6492,VALID,11,VALID,0,
2012-06-16, 00:59:04,VALID,1005.21,VALID,0,VALID,91.0354,VALID,0,VALID,22.6898,VALID,11,VALID,0,
2012-06-16, 01:00:04,VALID,1005.21,VALID,0,VALID,90.9134,VALID,0,VALID,22.7093,VALID,11,VALID,0,
2012-06-16, 01:01:04,VALID,1005.2,VALID,0,VALID,90.9057,VALID,0,VALID,22.7093,VALID,11,VALID,0,
2012-06-16, 01:02:04,VALID,1005.21,VALID,0,VALID,90.8752,VALID,0.0815089,VALID,22.7499,VALID,11,VALID,0,
2012-06-16, 01:03:04,VALID,1005.2,VALID,0,VALID,90.9286,VALID,0,VALID,22.7093,VALID,11,VALID,0,
2012-06-16, 01:04:04,VALID,1005.2,VALID,0,VALID,90.921,VALID,0,VALID,22.7093,VALID,11,VALID,0,
2012-06-16, 01:05:04,VALID,1005.19,VALID,0,VALID,91.0125,VALID,0,VALID,22.7093,VALID,11,VALID,0,
2012-06-16, 01:06:04,VALID,1005.16,VALID,0,VALID,91.1804,VALID,0,VALID,22.7093,VALID,11,VALID,0,
2012-06-16, 01:07:04,VALID,1005.2,VALID,0,VALID,91.2109,VALID,0,VALID,22.6898,VALID,11,VALID,0,
2012-06-16, 01:08:04,VALID,1005.17,VALID,0,VALID,91.2338,VALID,0.0815089,VALID,22.6686,VALID,11,VALID,0,
2012-06-16, 01:09:04,VALID,1005.15,VALID,0,VALID,91.2872,VALID,0,VALID,22.6686,VALID,11,VALID,0,
2012-06-16, 01:10:04,VALID,1005.16,VALID,0,VALID,91.2567,VALID,0,VALID,22.6704,VALID,11,VALID,0,
2012-06-16, 01:11:04,VALID,1005.15,VALID,0,VALID,91.249,VALID,0,VALID,22.6898,VALID,11,VALID,0,
2012-06-16, 01:12:04,VALID,1005.1,VALID,0,VALID,91.2643,VALID,0.0815089,VALID,22.6686,VALID,11,VALID,0,
2012-06-16, 01:13:04,VALID,1005.11,VALID,0,VALID,91.3177,VALID,0.0815089,VALID,22.6492,VALID,11,VALID,0,
2012-06-16, 01:14:04,VALID,1005.09,VALID,0,VALID,91.4398,VALID,0,VALID,22.6898,VALID,11,VALID,0,
2012-06-16, 01:15:04,VALID,1005.11,VALID,0,VALID,91.4169,VALID,0.0815089,VALID,22.6686,VALID,11,VALID,0,
2012-06-16, 01:16:04,VALID,1005.11,VALID,0,VALID,91.4932,VALID,0,VALID,22.7093,VALID,11,VALID,0,
2012-06-16, 01:17:04,VALID,1005.11,VALID,0,VALID,91.4092,VALID,0.0815089,VALID,22.6881,VALID,12,VALID,0,
2012-06-16, 01:18:04,VALID,1005.11,VALID,0,VALID,91.3558,VALID,0,VALID,22.6881,VALID,12,VALID,0,
2012-06-16, 01:19:04,VALID,1005.09,VALID,0,VALID,91.455,VALID,0,VALID,22.6686,VALID,12,VALID,0,
2012-06-16, 01:20:04,VALID,1005.13,VALID,0,VALID,91.4474,VALID,0.0815089,VALID,22.6881,VALID,12,VALID,0,
2012-06-16, 01:21:04,VALID,1005.1,VALID,0,VALID,91.6152,VALID,0.0815089,VALID,22.7076,VALID,12,VALID,0,
2012-06-16, 01:22:04,VALID,1005.07,VALID,0,VALID,91.5771,VALID,0,VALID,22.7482,VALID,12,VALID,0,
2012-06-16, 01:23:04,VALID,1005.03,VALID,0,VALID,91.6076,VALID,0.0815089,VALID,22.7677,VALID,12,VALID,0,
2012-06-16, 01:24:04,VALID,1005.02,VALID,0,VALID,91.455,VALID,0,VALID,22.8066,VALID,12,VALID,0,
2012-06-16, 01:25:04,VALID,1005.03,VALID,0,VALID,91.4169,VALID,0,VALID,22.826,VALID,12,VALID,0,
2012-06-16, 01:26:04,VALID,1005,VALID,0,VALID,91.3101,VALID,0,VALID,22.8455,VALID,12,VALID,0,
2012-06-16, 01:27:04,VALID,1005.02,VALID,0,VALID,91.1804,VALID,0,VALID,22.8455,VALID,12,VALID,0,
2012-06-16, 01:28:04,VALID,1005.01,VALID,0,VALID,91.1651,VALID,0,VALID,22.8844,VALID,12,VALID,0,
2012-06-16, 01:29:04,VALID,1004.99,VALID,0,VALID,91.188,VALID,0,VALID,22.8844,VALID,12,VALID,0,
2012-06-16, 01:30:04,VALID,1005.02,VALID,0,VALID,91.3101,VALID,0,VALID,22.9233,VALID,12,VALID,0,
2012-06-16, 01:31:04,VALID,1004.99,VALID,0,VALID,91.2033,VALID,0,VALID,22.9021,VALID,12,VALID,0,
2012-06-16, 01:32:04,VALID,1005.02,VALID,0,VALID,91.1346,VALID,0,VALID,22.9216,VALID,12,VALID,0,
2012-06-16, 01:33:04,VALID,1005.01,VALID,0,VALID,91.1117,VALID,0,VALID,22.9428,VALID,12,VALID,0,
2012-06-16, 01:34:04,VALID,1004.99,VALID,0,VALID,91.249,VALID,0,VALID,22.9622,VALID,12,VALID,0,
2012-06-16, 01:35:04,VALID,1004.95,VALID,0,VALID,91.333,VALID,0,VALID,22.9817,VALID,12,VALID,0,
2012-06-16, 01:36:04,VALID,1004.92,VALID,0,VALID,91.333,VALID,0,VALID,23.0418,VALID,12,VALID,0,
2012-06-16, 01:37:04,VALID,1004.93,VALID,0,VALID,91.2414,VALID,0,VALID,23.0595,VALID,12,VALID,0,
2012-06-16, 01:38:04,VALID,1004.9,VALID,0,VALID,91.188,VALID,0,VALID,23.0984,VALID,12,VALID,0,
2012-06-16, 01:39:04,VALID,1004.9,VALID,0,VALID,91.0125,VALID,0,VALID,23.1179,VALID,12,VALID,0,
2012-06-16, 01:40:04,VALID,1004.87,VALID,0,VALID,90.9515,VALID,0,VALID,23.1374,VALID,12,VALID,0,
2012-06-16, 01:41:04,VALID,1004.88,VALID,0,VALID,90.9744,VALID,0,VALID,23.1568,VALID,12,VALID,0,
2012-06-16, 01:42:04,VALID,1004.9,VALID,0,VALID,90.9286,VALID,0,VALID,23.1374,VALID,12,VALID,0,
2012-06-16, 01:43:04,VALID,1004.87,VALID,0,VALID,90.8981,VALID,0,VALID,23.178,VALID,12,VALID,0,
2012-06-16, 01:44:04,VALID,1004.86,VALID,0,VALID,90.8371,VALID,0,VALID,23.1551,VALID,12,VALID,0,
2012-06-16, 01:45:04,VALID,1004.88,VALID,0,VALID,90.9286,VALID,0,VALID,23.1551,VALID,12,VALID,0,
2012-06-16, 01:46:04,VALID,1004.85,VALID,0,VALID,90.8829,VALID,0,VALID,23.1356,VALID,12,VALID,0,
2012-06-16, 01:47:04,VALID,1004.85,VALID,0,VALID,90.8981,VALID,0,VALID,23.1763,VALID,12,VALID,0,
2012-06-16, 01:48:04,VALID,1004.85,VALID,0,VALID,90.9286,VALID,0,VALID,23.1763,VALID,12,VALID,0,
2012-06-16, 01:49:04,VALID,1004.85,VALID,0,VALID,91.0354,VALID,0,VALID,23.1568,VALID,12,VALID,0,
2012-06-16, 01:50:04,VALID,1004.83,VALID,0,VALID,91.2185,VALID,0.0815089,VALID,23.1568,VALID,12,VALID,0,
2012-06-16, 01:51:04,VALID,1004.83,VALID,0,VALID,91.3558,VALID,0,VALID,23.1568,VALID,12,VALID,0,
2012-06-16, 01:52:04,VALID,1004.81,VALID,0,VALID,91.4779,VALID,0,VALID,23.178,VALID,12,VALID,0,
2012-06-16, 01:53:04,VALID,1004.81,VALID,0,VALID,91.5161,VALID,0,VALID,23.1975,VALID,12,VALID,0,
2012-06-16, 01:54:04,VALID,1004.78,VALID,0,VALID,91.4779,VALID,0,VALID,23.1957,VALID,12,VALID,0,
2012-06-16, 01:55:04,VALID,1004.79,VALID,0,VALID,91.455,VALID,0,VALID,23.1763,VALID,12,VALID,0,
2012-06-16, 01:56:04,VALID,1004.8,VALID,0,VALID,91.4169,VALID,0,VALID,23.1957,VALID,12,VALID,0,
2012-06-16, 01:57:04,VALID,1004.78,VALID,0,VALID,91.4169,VALID,0,VALID,23.2152,VALID,12,VALID,0,
2012-06-16, 01:58:04,VALID,1004.76,VALID,0,VALID,91.4169,VALID,0,VALID,23.2347,VALID,15,VALID,0,
2012-06-16, 01:59:04,VALID,1004.77,VALID,0,VALID,91.4245,VALID,0,VALID,23.2541,VALID,15,VALID,0,
2012-06-16, 02:00:04,VALID,1004.78,VALID,0,VALID,91.4779,VALID,0,VALID,23.2736,VALID,15,VALID,0,
2012-06-16, 02:01:04,VALID,1004.77,VALID,0,VALID,91.3482,VALID,0,VALID,23.332,VALID,68,VALID,0.687109,
2012-06-16, 02:02:04,VALID,1004.76,VALID,0,VALID,91.2033,VALID,0,VALID,23.3514,VALID,66,VALID,0.461328,
2012-06-16, 02:03:04,VALID,1004.75,VALID,0,VALID,91.0736,VALID,0,VALID,23.3904,VALID,66,VALID,0.435547,
2012-06-16, 02:04:04,VALID,1004.76,VALID,0,VALID,90.86,VALID,0,VALID,23.4487,VALID,68,VALID,0.411719,
2012-06-16, 02:05:04,VALID,1004.78,VALID,0,VALID,90.7379,VALID,0,VALID,23.4487,VALID,68,VALID,0.551953,
2012-06-16, 02:06:04,VALID,1004.74,VALID,0,VALID,90.5853,VALID,0,VALID,23.4682,VALID,69,VALID,0.410937,
2012-06-16, 02:07:04,VALID,1004.75,VALID,0,VALID,90.5777,VALID,0,VALID,23.5071,VALID,70,VALID,0.575781,
2012-06-16, 02:08:04,VALID,1004.73,VALID,0,VALID,90.4099,VALID,0,VALID,23.5284,VALID,70,VALID,0.417578,
2012-06-16, 02:09:04,VALID,1004.71,VALID,0,VALID,90.2573,VALID,0,VALID,23.546,VALID,66,VALID,0.542969,
2012-06-16, 02:10:04,VALID,1004.72,VALID,0,VALID,90.0742,VALID,0,VALID,23.5655,VALID,65,VALID,0.25,
2012-06-16, 02:11:04,VALID,1004.67,VALID,0,VALID,89.9216,VALID,0,VALID,23.585,VALID,65,VALID,0.0570313,
2012-06-16, 02:12:04,VALID,1004.66,VALID,0,VALID,89.5783,VALID,0,VALID,23.6044,VALID,65,VALID,0.707422,
2012-06-16, 02:13:04,VALID,1004.65,VALID,0,VALID,89.3723,VALID,0,VALID,23.6628,VALID,65,VALID,0.526953,
2012-06-16, 02:14:04,VALID,1004.62,VALID,0,VALID,88.8078,VALID,0,VALID,23.6823,VALID,76,VALID,0.808594,
2012-06-16, 02:15:04,VALID,1004.6,VALID,0,VALID,87.9534,VALID,0,VALID,23.8185,VALID,80,VALID,0.389453,
2012-06-16, 02:16:04,VALID,1004.6,VALID,0,VALID,87.4575,VALID,0,VALID,23.8575,VALID,80,VALID,0.616797,
2012-06-16, 02:17:04,VALID,1004.6,VALID,0,VALID,87.3125,VALID,0,VALID,23.8575,VALID,80,VALID,0.457812,
2012-06-16, 02:18:04,VALID,1004.56,VALID,0,VALID,87.1676,VALID,0,VALID,23.8769,VALID,79,VALID,0.496875,
2012-06-16, 02:19:04,VALID,1004.53,VALID,0,VALID,86.954,VALID,0,VALID,23.8964,VALID,80,VALID,0.900391,
2012-06-16, 02:20:04,VALID,1004.55,VALID,0,VALID,86.5802,VALID,0,VALID,23.8964,VALID,81,VALID,0.783594,
2012-06-16, 02:21:04,VALID,1004.53,VALID,0,VALID,86.3742,VALID,0,VALID,23.9566,VALID,65,VALID,0.445313,
2012-06-16, 02:22:04,VALID,1004.52,VALID,0,VALID,85.3595,VALID,0,VALID,24.0521,VALID,72,VALID,0.748828,
2012-06-16, 02:23:04,VALID,1004.51,VALID,0,VALID,84.8942,VALID,0,VALID,24.1318,VALID,76,VALID,0.594922,
2012-06-16, 02:24:04,VALID,1004.48,VALID,0,VALID,84.7645,VALID,0,VALID,24.1087,VALID,83,VALID,0.853125,
2012-06-16, 02:25:04,VALID,1004.47,VALID,0,VALID,84.8026,VALID,0,VALID,24.1087,VALID,80,VALID,0.489844,
2012-06-16, 02:26:04,VALID,1004.44,VALID,0,VALID,84.528,VALID,0,VALID,24.1884,VALID,92,VALID,0.757031,
2012-06-16, 02:27:04,VALID,1004.45,VALID,0,VALID,84.2305,VALID,0,VALID,24.2078,VALID,81,VALID,0.836328,
2012-06-16, 02:28:04,VALID,1004.43,VALID,0,VALID,83.9101,VALID,0.0815089,VALID,24.2255,VALID,85,VALID,0.771484,
2012-06-16, 02:29:04,VALID,1004.4,VALID,0,VALID,83.6964,VALID,0,VALID,24.2468,VALID,91,VALID,0.901953,
2012-06-16, 02:30:04,VALID,1004.42,VALID,0,VALID,83.7422,VALID,0,VALID,24.2662,VALID,91,VALID,0.830078,
2012-06-16, 02:31:04,VALID,1004.38,VALID,0,VALID,83.5896,VALID,0,VALID,24.2681,VALID,91,VALID,0.655078,
2012-06-16, 02:32:04,VALID,1004.38,VALID,0,VALID,83.2845,VALID,0.0815089,VALID,24.2839,VALID,90,VALID,0.918359,
2012-06-16, 02:33:04,VALID,1004.4,VALID,0,VALID,82.7505,VALID,0,VALID,24.3441,VALID,91,VALID,0.624609,
2012-06-16, 02:34:04,VALID,1004.39,VALID,0,VALID,82.5903,VALID,0,VALID,24.4025,VALID,63,VALID,0.719922,
2012-06-16, 02:35:04,VALID,1004.4,VALID,0,VALID,82.3919,VALID,0,VALID,24.422,VALID,73,VALID,0.533594,
2012-06-16, 02:36:04,VALID,1004.4,VALID,0,VALID,82.3843,VALID,0,VALID,24.422,VALID,82,VALID,0.940234,
2012-06-16, 02:37:04,VALID,1004.38,VALID,0,VALID,82.5216,VALID,0,VALID,24.4628,VALID,67,VALID,0.641406,
2012-06-16, 02:38:04,VALID,1004.4,VALID,0,VALID,82.6742,VALID,0,VALID,24.4414,VALID,74,VALID,0.732422,
2012-06-16, 02:39:04,VALID,1004.4,VALID,0,VALID,82.9336,VALID,0,VALID,24.4025,VALID,71,VALID,0.557031,
2012-06-16, 02:40:04,VALID,1004.38,VALID,0,VALID,83.1548,VALID,0,VALID,24.4238,VALID,78,VALID,0.733984,
2012-06-16, 02:41:04,VALID,1004.4,VALID,0,VALID,83.4065,VALID,0,VALID,24.4025,VALID,35,VALID,0.259375,
2012-06-16, 02:42:04,VALID,1004.39,VALID,0,VALID,83.6125,VALID,0,VALID,24.4025,VALID,57,VALID,0.786328,
2012-06-16, 02:43:04,VALID,1004.38,VALID,0,VALID,83.5286,VALID,0,VALID,24.4025,VALID,57,VALID,0.332031,
2012-06-16, 02:44:04,VALID,1004.36,VALID,0,VALID,83.788,VALID,0,VALID,24.3636,VALID,58,VALID,0.223828,
2012-06-16, 02:45:04,VALID,1004.37,VALID,0,VALID,84.055,VALID,0,VALID,24.3246,VALID,79,VALID,0.438672,
2012-06-16, 02:46:04,VALID,1004.37,VALID,0,VALID,84.2991,VALID,0,VALID,24.2857,VALID,76,VALID,0.485547,
2012-06-16, 02:47:04,VALID,1004.33,VALID,0,VALID,84.6577,VALID,0,VALID,24.2681,VALID,73,VALID,0.361719,
2012-06-16, 02:48:04,VALID,1004.33,VALID,0,VALID,84.9323,VALID,0,VALID,24.2291,VALID,59,VALID,0.586328,
2012-06-16, 02:49:04,VALID,1004.33,VALID,0,VALID,85.3367,VALID,0,VALID,24.13,VALID,59,VALID,0.460156,
2012-06-16, 02:50:04,VALID,1004.3,VALID,0,VALID,85.6037,VALID,0,VALID,24.0716,VALID,60,VALID,0.309375,
2012-06-16, 02:51:04,VALID,1004.33,VALID,0,VALID,86.0461,VALID,0,VALID,24.0345,VALID,57,VALID,0.6375,
2012-06-16, 02:52:04,VALID,1004.31,VALID,0,VALID,86.4276,VALID,0,VALID,24.0132,VALID,26,VALID,1.02656,
2012-06-16, 02:53:04,VALID,1004.32,VALID,0,VALID,86.2064,VALID,0,VALID,24.0326,VALID,27,VALID,0.367188,
2012-06-16, 02:54:04,VALID,1004.35,VALID,0,VALID,86.2521,VALID,0,VALID,24.0132,VALID,27,VALID,0.500391,
2012-06-16, 02:55:04,VALID,1004.35,VALID,0,VALID,86.3894,VALID,0,VALID,23.9955,VALID,27,VALID,0.670313,
2012-06-16, 02:56:04,VALID,1004.36,VALID,0,VALID,86.5344,VALID,0,VALID,23.9937,VALID,24,VALID,0.392188,
2012-06-16, 02:57:04,VALID,1004.38,VALID,0,VALID,86.3132,VALID,0,VALID,24.0326,VALID,356,VALID,0.410156,
2012-06-16, 02:58:04,VALID,1004.38,VALID,0,VALID,86.2216,VALID,0,VALID,24.0521,VALID,359,VALID,0.295312,
2012-06-16, 02:59:04,VALID,1004.38,VALID,0,VALID,86.1606,VALID,0,VALID,24.0521,VALID,1,VALID,0.344531,
2012-06-16, 03:00:04,VALID,1004.39,VALID,0,VALID,86.2369,VALID,0,VALID,24.0716,VALID,8,VALID,0.501953,
2012-06-16, 03:01:04,VALID,1004.4,VALID,0,VALID,86.2445,VALID,0,VALID,24.0716,VALID,19,VALID,0.532031,
2012-06-16, 03:02:04,VALID,1004.39,VALID,0,VALID,86.275,VALID,0,VALID,24.0716,VALID,21,VALID,0.593359,
2012-06-16, 03:03:04,VALID,1004.4,VALID,0,VALID,86.2521,VALID,0,VALID,24.0716,VALID,22,VALID,0.374609,
2012-06-16, 03:04:04,VALID,1004.4,VALID,0,VALID,86.542,VALID,0,VALID,24.0326,VALID,22,VALID,0.490625,
2012-06-16, 03:05:04,VALID,1004.4,VALID,0,VALID,86.8929,VALID,0,VALID,23.9955,VALID,22,VALID,0.360938,
2012-06-16, 03:06:04,VALID,1004.43,VALID,0,VALID,87.0837,VALID,0,VALID,23.9548,VALID,22,VALID,0.49375,
2012-06-16, 03:07:04,VALID,1004.43,VALID,0,VALID,87.2668,VALID,0,VALID,23.8964,VALID,22,VALID,0.351563,
2012-06-16, 03:08:04,VALID,1004.42,VALID,0,VALID,87.5185,VALID,0,VALID,23.8787,VALID,22,VALID,0.329688,
2012-06-16, 03:09:04,VALID,1004.42,VALID,0,VALID,87.694,VALID,0,VALID,23.8575,VALID,22,VALID,0.380859,
2012-06-16, 03:10:04,VALID,1004.41,VALID,0,VALID,87.7398,VALID,0,VALID,23.8593,VALID,22,VALID,0.165234,
2012-06-16, 03:11:04,VALID,1004.44,VALID,0,VALID,87.9457,VALID,0,VALID,23.8398,VALID,22,VALID,0.357422,
2012-06-16, 03:12:04,VALID,1004.47,VALID,0,VALID,88.022,VALID,0,VALID,23.7991,VALID,22,VALID,0.378516,
2012-06-16, 03:13:04,VALID,1004.48,VALID,0,VALID,88.1288,VALID,0,VALID,23.8185,VALID,22,VALID,0.336328,
2012-06-16, 03:14:04,VALID,1004.47,VALID,0,VALID,88.1746,VALID,0,VALID,23.7991,VALID,22,VALID,0.00585938,
2012-06-16, 03:15:04,VALID,1004.5,VALID,0,VALID,88.228,VALID,0,VALID,23.7796,VALID,22,VALID,0.0269531,
2012-06-16, 03:16:04,VALID,1004.52,VALID,0,VALID,88.4035,VALID,0,VALID,23.8009,VALID,22,VALID,0.223828,
2012-06-16, 03:17:04,VALID,1004.52,VALID,0,VALID,88.2356,VALID,0,VALID,23.7601,VALID,22,VALID,0.159766,
2012-06-16, 03:18:04,VALID,1004.55,VALID,0,VALID,88.5026,VALID,0,VALID,23.7619,VALID,22,VALID,0.289844,
2012-06-16, 03:19:04,VALID,1004.53,VALID,0,VALID,88.495,VALID,0,VALID,23.7017,VALID,22,VALID,0.49375,
2012-06-16, 03:20:04,VALID,1004.51,VALID,0,VALID,88.8765,VALID,0,VALID,23.7017,VALID,22,VALID,0.44375,
2012-06-16, 03:21:04,VALID,1004.52,VALID,0,VALID,89.0138,VALID,0,VALID,23.6823,VALID,22,VALID,0.310156,
2012-06-16, 03:22:04,VALID,1004.51,VALID,0,VALID,88.8307,VALID,0,VALID,23.6841,VALID,22,VALID,0.664844,
2012-06-16, 03:23:04,VALID,1004.53,VALID,0,VALID,89.0214,VALID,0,VALID,23.6044,VALID,22,VALID,0.24375,
2012-06-16, 03:24:04,VALID,1004.51,VALID,0,VALID,89.0901,VALID,0,VALID,23.5868,VALID,22,VALID,0.449609,
2012-06-16, 03:25:04,VALID,1004.5,VALID,0,VALID,89.4715,VALID,0,VALID,23.5284,VALID,22,VALID,0.356641,
2012-06-16, 03:26:04,VALID,1004.52,VALID,0,VALID,89.8453,VALID,0,VALID,23.4682,VALID,23,VALID,0.235156,
2012-06-16, 03:27:04,VALID,1004.51,VALID,0,VALID,89.9521,VALID,0,VALID,23.4682,VALID,29,VALID,0.324219,
2012-06-16, 03:28:04,VALID,1004.5,VALID,0,VALID,89.853,VALID,0,VALID,23.5284,VALID,72,VALID,0.279297,
2012-06-16, 03:29:04,VALID,1004.47,VALID,0,VALID,89.6927,VALID,0,VALID,23.5478,VALID,72,VALID,0.617969,
2012-06-16, 03:30:04,VALID,1004.5,VALID,0,VALID,89.6927,VALID,0,VALID,23.585,VALID,71,VALID,0.566797,
2012-06-16, 03:31:04,VALID,1004.48,VALID,0,VALID,89.4257,VALID,0,VALID,23.6646,VALID,83,VALID,0.808203,
2012-06-16, 03:32:04,VALID,1004.43,VALID,0,VALID,89.0519,VALID,0,VALID,23.7035,VALID,82,VALID,0.567969,
2012-06-16, 03:33:04,VALID,1004.4,VALID,0,VALID,88.8841,VALID,0,VALID,23.7407,VALID,80,VALID,0.418359,
2012-06-16, 03:34:04,VALID,1004.42,VALID,0,VALID,88.6857,VALID,0,VALID,23.8009,VALID,80,VALID,0.316797,
2012-06-16, 03:35:04,VALID,1004.41,VALID,0,VALID,88.6476,VALID,0,VALID,23.7407,VALID,80,VALID,0.389062,
2012-06-16, 03:36:04,VALID,1004.41,VALID,0,VALID,88.8841,VALID,0,VALID,23.7212,VALID,80,VALID,0.501562,
2012-06-16, 03:37:04,VALID,1004.41,VALID,0,VALID,89.0519,VALID,0,VALID,23.7407,VALID,76,VALID,0.599219,
2012-06-16, 03:38:04,VALID,1004.4,VALID,0,VALID,88.7086,VALID,0,VALID,23.7407,VALID,76,VALID,0.173828,
2012-06-16, 03:39:04,VALID,1004.39,VALID,0,VALID,88.5866,VALID,0,VALID,23.7212,VALID,76,VALID,0.545313,
2012-06-16, 03:40:04,VALID,1004.39,VALID,0,VALID,88.8231,VALID,0,VALID,23.7017,VALID,76,VALID,0.0589844,
2012-06-16, 03:41:04,VALID,1004.39,VALID,0,VALID,88.9375,VALID,0,VALID,23.6628,VALID,71,VALID,0.589063,
2012-06-16, 03:42:04,VALID,1004.37,VALID,0,VALID,89.3418,VALID,0,VALID,23.6823,VALID,96,VALID,0.322656,
2012-06-16, 03:43:04,VALID,1004.35,VALID,0,VALID,89.38,VALID,0,VALID,23.7212,VALID,96,VALID,0.375391,
2012-06-16, 03:44:04,VALID,1004.34,VALID,0,VALID,89.1511,VALID,0,VALID,23.7407,VALID,96,VALID,0,
2012-06-16, 03:45:04,VALID,1004.33,VALID,0,VALID,88.9146,VALID,0,VALID,23.7814,VALID,80,VALID,0,
2012-06-16, 03:46:04,VALID,1004.32,VALID,0,VALID,88.968,VALID,0,VALID,23.7991,VALID,79,VALID,0.0015625,
2012-06-16, 03:47:04,VALID,1004.31,VALID,0,VALID,88.7925,VALID,0,VALID,23.8398,VALID,47,VALID,0,
2012-06-16, 03:48:04,VALID,1004.29,VALID,0,VALID,88.6018,VALID,0,VALID,23.838,VALID,47,VALID,0,
2012-06-16, 03:49:04,VALID,1004.25,VALID,0,VALID,88.5408,VALID,0,VALID,23.8185,VALID,43,VALID,0.626172,
2012-06-16, 03:50:04,VALID,1004.27,VALID,0,VALID,88.9604,VALID,0,VALID,23.7991,VALID,78,VALID,0.523438,
2012-06-16, 03:51:04,VALID,1004.27,VALID,0,VALID,89.0367,VALID,0,VALID,23.7991,VALID,88,VALID,0.246875,
2012-06-16, 03:52:04,VALID,1004.22,VALID,0,VALID,88.968,VALID,0,VALID,23.8593,VALID,88,VALID,0.265234,